Weather History for KBMQ - April, 2013

Change the Weather History Date:

Sunday, April 21, 2013

  Actual Average Record
Temperature  
Mean Temperature 64 °F -  
Max Temperature 77 °F 76 °F 93 °F (1997)
Min Temperature 50 °F 55 °F 48 °F (1998)
Degree Days  
Heating Degree Days 2    
Growing Degree Days 14 (Base 50)    
Moisture  
Dew Point 48 °F    
Average Humidity 64    
Maximum Humidity 83    
Minimum Humidity 39    
Precipitation  
Precipitation 0.00 in - - ()
Sea Level Pressure  
Sea Level Pressure 30.09 in    
Wind  
Wind Speed 7 mph (SE)    
Max Wind Speed 12 mph    
Max Gust Speed 21 mph    
Visibility 10 miles    
Events      
Averages and records for this station are not official NWS values.
T = Trace of Precipitation, MM = Missing Value Source: NWS Daily Summary

Daily Weather History Graph

Daily Weather History Graph

Search for Another Location

Airport or City:

Trip Planner

Search our weather history database for the weather conditions in past years. The results will help you decide how hot, cold, wet, or windy it might be!

Date:

Astronomy

Apr. 21, 2013 Rise Set
Actual Time 6:58 AM CDT 8:05 PM CDT
Civil Twilight 6:33 AM CDT 8:30 PM CDT
Nautical Twilight 6:03 AM CDT 8:59 PM CDT
Astronomical Twilight 5:33 AM CDT 9:30 PM CDT
Moon 4:07 PM CDT (4/21) 4:03 AM CDT (4/21)
Length of Visible Light 13h 56m
Length of Day
13h 06m
Waxing Gibbous, 80% of the Moon is Illuminated
Apr 21
Waxing Gibbous
Apr 25
Full
May 2
Last Quarter
May 9
New
May 17
First Quarter

Hourly Weather History & Observations

Time (CDT) Temp. Dew Point Humidity Pressure Visibility Wind Dir Wind Speed Gust Speed Precip Events Conditions
12:53 AM 55.9 °F 44.1 °F 64% 30.07 in 10.0 mi SE 9.2 mph 19.6 mph N/A   Clear
1:53 AM 54.0 °F 44.1 °F 69% 30.08 in 10.0 mi SSE 8.1 mph - N/A   Partly Cloudy
2:06 AM 54.0 °F 45.0 °F 72% 30.10 in 10.0 mi SE 8.1 mph 19.6 mph N/A   Mostly Cloudy
2:41 AM 53.1 °F 45.0 °F 74% 30.11 in 10.0 mi SE 4.6 mph - N/A   Scattered Clouds
2:53 AM 53.1 °F 45.0 °F 74% 30.09 in 10.0 mi SE 5.8 mph - N/A   Clear
3:53 AM 51.1 °F 45.0 °F 80% 30.07 in 10.0 mi ESE 3.5 mph - N/A   Clear
4:53 AM 51.1 °F 44.1 °F 77% 30.08 in 10.0 mi SE 5.8 mph - N/A   Clear
5:12 AM 50.0 °F 44.1 °F 80% 30.10 in 10.0 mi SE 4.6 mph - N/A   Mostly Cloudy
5:41 AM 51.1 °F 45.0 °F 80% 30.09 in 10.0 mi SE 5.8 mph - N/A   Scattered Clouds
5:53 AM 51.1 °F 45.0 °F 80% 30.07 in 10.0 mi SE 4.6 mph - N/A   Clear
6:16 AM 50.0 °F 45.0 °F 83% 30.10 in 10.0 mi Calm Calm - N/A   Mostly Cloudy
6:32 AM 50.0 °F 45.0 °F 83% 30.10 in 10.0 mi SE 3.5 mph - N/A   Scattered Clouds
6:53 AM 50.0 °F 45.0 °F 83% 30.09 in 10.0 mi SE 4.6 mph - N/A   Clear
7:53 AM 52.0 °F 46.0 °F 80% 30.11 in 10.0 mi ESE 4.6 mph - N/A   Partly Cloudy
8:28 AM 55.0 °F 46.9 °F 74% 30.15 in 10.0 mi SE 6.9 mph - N/A   Mostly Cloudy
8:53 AM 57.0 °F 46.9 °F 69% 30.13 in 10.0 mi SE 9.2 mph - N/A   Overcast
9:44 AM 61.0 °F 48.9 °F 64% 30.16 in 10.0 mi SE 9.2 mph 17.3 mph N/A   Mostly Cloudy
9:53 AM 61.0 °F 48.9 °F 64% 30.13 in 10.0 mi SSE 8.1 mph 17.3 mph N/A   Mostly Cloudy
10:53 AM 64.0 °F 50.0 °F 60% 30.15 in 10.0 mi South 10.4 mph 20.7 mph N/A   Partly Cloudy
11:53 AM 66.9 °F 50.0 °F 54% 30.14 in 10.0 mi South 9.2 mph 18.4 mph N/A   Mostly Cloudy
12:53 PM 66.9 °F 50.0 °F 54% 30.13 in 10.0 mi South 9.2 mph 18.4 mph N/A   Overcast
1:53 PM 71.1 °F 48.9 °F 45% 30.09 in 10.0 mi South 11.5 mph 17.3 mph N/A   Scattered Clouds
2:53 PM 73.0 °F 48.9 °F 42% 30.06 in 10.0 mi SSW 11.5 mph 18.4 mph N/A   Partly Cloudy
3:53 PM 75.0 °F 48.9 °F 40% 30.03 in 10.0 mi South 10.4 mph - N/A   Partly Cloudy
4:53 PM 77.0 °F 50.0 °F 39% 30.01 in 10.0 mi SE 8.1 mph - N/A   Mostly Cloudy
5:53 PM 75.9 °F 50.0 °F 40% 30.01 in 10.0 mi SE 5.8 mph - N/A   Scattered Clouds
6:53 PM 73.9 °F 51.1 °F 45% 30.02 in 10.0 mi SE 8.1 mph - N/A   Mostly Cloudy
7:53 PM 72.0 °F 51.1 °F 48% 30.03 in 10.0 mi ESE 8.1 mph - N/A   Overcast
8:53 PM 68.0 °F 51.1 °F 55% 30.05 in 10.0 mi East 5.8 mph - N/A   Scattered Clouds
9:53 PM 66.0 °F 51.1 °F 59% 30.08 in 10.0 mi East 6.9 mph - N/A   Partly Cloudy
10:53 PM 64.0 °F 51.1 °F 63% 30.09 in 10.0 mi ESE 6.9 mph - N/A   Clear
11:53 PM 63.0 °F 52.0 °F 67% 30.08 in 10.0 mi SE 6.9 mph - N/A   Clear